Location: Campolattaro
(41.2833°N, 14.7333°E)
Time: 23:46:26
(UTC+00:00)

Cosmos 1656 - Pass Details

Date: 19 May 2025
Orbit: 797 x 848 km, 71.1° (Epoch: 22 June)

Event Time Altitude Azimuth Distance (km) Brightness Sun altitude
Rises 19:52:13 0° 333° (NNW) 3,399 8.3 -15.2°
Reaches altitude 10° 19:54:41 10° 331° (NNW) 2,454 7.4 -15.5°
Maximum altitude 20:00:15 65° 250° (WSW) 905 3.9 -16.3°
Enters shadow 20:04:02 20° 173° (S) 1,794 4.9 -16.7°
